Location: Poughquag
(41.6090°N, 73.6820°W)
Time: 10:47:20
(UTC-05:00)

Vanguard 3 - Pass Details

Date: 06 December 2023
Orbit: 508 x 3239 km, 33.4° (Epoch: 03 March)

Event Time Altitude Azimuth Distance (km) Brightness Sun altitude
Rises 21:07:09 0° 237° (WSW) 6,646 12.1 -51.8°
Reaches altitude 10° 21:12:23 10° 232° (SW) 5,269 11.5 -52.8°
Enters shadow 21:18:29 25° 220° (SW) 3,641 10.4 -53.8°
